METEOR 2-11 DEB, 45517

Orbit data source: Space-Track

METEOR 2-11 DEB, 45517 is space debris in LEO originally from a launch on Thu, 05 Jul 1984 UTC launched from the Plesetsk Missile And Space Complex (PKMTR). Debris objects in space refer to the collection of defunct objects orbiting the Earth. Examples of debris include non-operational satellites, rocket bodies, and fragments generated from explosions, collisions, or faulty payload assembly.

Loading next visibility...
Identifier
45517, 1984-072X
Orbit
LEO
Country
Flag of CISCIS
Related business
Manufacturer
Unknown
Mission
Spacecraft
Bus & Motor
Unknown
Mass
Unknown
Launch date (UTC)
1984-07-05 (42 years ago)
Launch vehicle
Unknown
Launch site
Plesetsk Missile And Space Complex (PKMTR)
Object type
Payload
Rocket body
Debris
Shape & HBR
Unknown shape, 0.1 m
Radar Cross Section
Small (<0.1 m²)

Expand to show TLE details & history
Last TLE update: 6 days ago

TLE from 6 days ago
0 METEOR 2-11 DEB
1 45517U 84072X   26203.60684515  .00000899  00000-0  56133-3 0  9998
2 45517  82.5188 323.5559 0014479 149.4155 226.5907 14.03773643598070
Epoch: 2026-07-22T14:33Z
TLE epoch observation values (Epoch: 2026-07-22T14:33:51.420Z)
Latitude
15.72616°
Longitude
166.83985°
Altitude
890.241 km
Speed
7.405 km/s
True Right ascension
21h 42m 39s
True Declination
15° 38' 18"
Sunlit
Object was in full shadow at epoch
Visualization orbit readout
Latitude
Unknown
Longitude
Unknown
Altitude
Unknown
Speed
Unknown
Apparent Right ascension
Unknown
Apparent Declination
Unknown
Sunlit
N/A
Visualization observer readout
Local Sidereal Time
05:29:58
Azimuth
Unknown
Elevation
Unknown
Doppler factor
Unknown
Orbital elements
Apogee altitude
888.389 km
Perigee altitude
867.377 km
Semi-major axis
7,256.02 km
Eccentricity
0.00145
Inclination
82.5188°
RAAN
323.5559°
Arg. of periapsis
149.4155°
True anomaly
226.47032°
Mean anomaly
226.5907°
Eccentric anomaly
226.53049°
Mean motion
3.51152 °/min
Orbital period
102.52 mins
BSTAR
0.00056133
Loading maneuver chart data...
Computing Atmospheric mass density...
Loading historical data...
Loading historical data...
Loading historical data...
Loading historical data...
Loading historical data...
Loading historical data...
Loading historical data...

Documentation

Showing up to 5 results
|